,,,PA_Meas_PMT16A,,PR_Meas_QMR101_102,,RH_Meas_QMH101,,SR_Meas_QMS101,,TA_Meas_QMH101,,GenWind,,GenWind,
date,time,status,PA,status,PR,status,RH,status,SR,status,TA,status,DirAvg,status,SpdAvg,
2012-02-13, 00:00:05,VALID,1009.93,VALID,0,VALID,104,VALID,0,VALID,23.09,VALID,151,VALID,0.601953,
2012-02-13, 00:01:05,VALID,1009.91,VALID,0,VALID,104,VALID,0,VALID,23.0705,VALID,151,VALID,0.379687,
2012-02-13, 00:02:05,VALID,1009.9,VALID,0,VALID,104,VALID,0,VALID,23.0705,VALID,151,VALID,0.217969,
2012-02-13, 00:03:05,VALID,1009.89,VALID,0,VALID,104,VALID,0,VALID,23.09,VALID,151,VALID,0.151562,
2012-02-13, 00:04:05,VALID,1009.87,VALID,0,VALID,104,VALID,0,VALID,23.09,VALID,151,VALID,0.433594,
2012-02-13, 00:05:05,VALID,1009.83,VALID,0,VALID,104,VALID,0,VALID,23.09,VALID,151,VALID,0.48125,
2012-02-13, 00:06:05,VALID,1009.84,VALID,0,VALID,104,VALID,0,VALID,23.0705,VALID,151,VALID,0.321484,
2012-02-13, 00:07:05,VALID,1009.82,VALID,0,VALID,104,VALID,0,VALID,23.0705,VALID,151,VALID,0.116797,
2012-02-13, 00:08:05,VALID,1009.78,VALID,0,VALID,104,VALID,0,VALID,23.09,VALID,151,VALID,0.180859,
2012-02-13, 00:09:05,VALID,1009.77,VALID,0,VALID,104,VALID,0.112112,VALID,23.1095,VALID,151,VALID,0.296875,
2012-02-13, 00:10:05,VALID,1009.77,VALID,0,VALID,104,VALID,0.112112,VALID,23.09,VALID,151,VALID,0.369922,
2012-02-13, 00:11:05,VALID,1009.75,VALID,0,VALID,104,VALID,0,VALID,23.1095,VALID,151,VALID,0.473828,
2012-02-13, 00:12:05,VALID,1009.74,VALID,0,VALID,104,VALID,0,VALID,23.1095,VALID,146,VALID,0.308203,
2012-02-13, 00:13:05,VALID,1009.75,VALID,0,VALID,104,VALID,0,VALID,23.1095,VALID,144,VALID,0.4125,
2012-02-13, 00:14:05,VALID,1009.75,VALID,0,VALID,104,VALID,0,VALID,23.1095,VALID,129,VALID,0.400781,
2012-02-13, 00:15:05,VALID,1009.78,VALID,0,VALID,104,VALID,0,VALID,23.1095,VALID,50,VALID,0.74375,
2012-02-13, 00:16:05,VALID,1009.77,VALID,0,VALID,104,VALID,0.112112,VALID,23.0688,VALID,37,VALID,0.755859,
2012-02-13, 00:17:05,VALID,1009.77,VALID,0,VALID,104,VALID,0,VALID,23.09,VALID,29,VALID,0.747266,
2012-02-13, 00:18:05,VALID,1009.75,VALID,0,VALID,104,VALID,0,VALID,23.0511,VALID,24,VALID,0.5875,
2012-02-13, 00:19:05,VALID,1009.76,VALID,0,VALID,104,VALID,0,VALID,23.0316,VALID,24,VALID,0.519531,
2012-02-13, 00:20:05,VALID,1009.77,VALID,0,VALID,104,VALID,0,VALID,22.9926,VALID,21,VALID,0.494922,
2012-02-13, 00:21:05,VALID,1009.75,VALID,0,VALID,104,VALID,0,VALID,23.0121,VALID,21,VALID,0.323047,
2012-02-13, 00:22:05,VALID,1009.74,VALID,0,VALID,104,VALID,0,VALID,23.0121,VALID,21,VALID,0.35625,
2012-02-13, 00:23:05,VALID,1009.73,VALID,0,VALID,104,VALID,0,VALID,23.0121,VALID,21,VALID,0.267578,
2012-02-13, 00:24:05,VALID,1009.74,VALID,0,VALID,104,VALID,0,VALID,23.0121,VALID,21,VALID,0.3375,
2012-02-13, 00:25:05,VALID,1009.71,VALID,0,VALID,104,VALID,0.112112,VALID,23.0121,VALID,20,VALID,0.295703,
2012-02-13, 00:26:05,VALID,1009.71,VALID,0,VALID,104,VALID,0,VALID,23.0121,VALID,12,VALID,0.321484,
2012-02-13, 00:27:05,VALID,1009.71,VALID,0,VALID,104,VALID,0,VALID,22.9714,VALID,337,VALID,0.541797,
2012-02-13, 00:28:05,VALID,1009.69,VALID,0,VALID,104,VALID,0,VALID,22.9926,VALID,337,VALID,0.267188,
2012-02-13, 00:29:05,VALID,1009.69,VALID,0,VALID,104,VALID,0,VALID,23.0138,VALID,337,VALID,0.397266,
2012-02-13, 00:30:05,VALID,1009.64,VALID,0,VALID,104,VALID,0,VALID,22.9926,VALID,337,VALID,0.45,
2012-02-13, 00:31:05,VALID,1009.62,VALID,0,VALID,104,VALID,0,VALID,22.9943,VALID,337,VALID,0.316016,
2012-02-13, 00:32:05,VALID,1009.62,VALID,0,VALID,104,VALID,0,VALID,22.9519,VALID,337,VALID,0.3125,
2012-02-13, 00:33:05,VALID,1009.59,VALID,0,VALID,104,VALID,0,VALID,22.9324,VALID,337,VALID,0.409766,
2012-02-13, 00:34:05,VALID,1009.57,VALID,0,VALID,104,VALID,0,VALID,22.9731,VALID,337,VALID,0.382031,
2012-02-13, 00:35:05,VALID,1009.53,VALID,0,VALID,104,VALID,0,VALID,22.9342,VALID,337,VALID,0.495703,
2012-02-13, 00:36:05,VALID,1009.55,VALID,0,VALID,104,VALID,0,VALID,22.9342,VALID,337,VALID,0.311719,
2012-02-13, 00:37:05,VALID,1009.54,VALID,0,VALID,104,VALID,0,VALID,22.9359,VALID,337,VALID,0.324609,
2012-02-13, 00:38:05,VALID,1009.53,VALID,0,VALID,104,VALID,0,VALID,22.9147,VALID,337,VALID,0.329297,
2012-02-13, 00:39:05,VALID,1009.54,VALID,0,VALID,104,VALID,0,VALID,22.8952,VALID,337,VALID,0.427344,
2012-02-13, 00:40:05,VALID,1009.54,VALID,0,VALID,104,VALID,0,VALID,22.8952,VALID,337,VALID,0.491406,
2012-02-13, 00:41:05,VALID,1009.52,VALID,0,VALID,104,VALID,0,VALID,22.8952,VALID,29,VALID,0.685547,
2012-02-13, 00:42:05,VALID,1009.52,VALID,0,VALID,104,VALID,0,VALID,22.8952,VALID,30,VALID,0.439453,
2012-02-13, 00:43:05,VALID,1009.5,VALID,0,VALID,104,VALID,0,VALID,22.9147,VALID,30,VALID,0.478906,
2012-02-13, 00:44:05,VALID,1009.51,VALID,0,VALID,104,VALID,0,VALID,22.9147,VALID,30,VALID,0.364844,
2012-02-13, 00:45:05,VALID,1009.48,VALID,0,VALID,104,VALID,0,VALID,22.9147,VALID,30,VALID,0.235156,
2012-02-13, 00:46:05,VALID,1009.46,VALID,0,VALID,104,VALID,0,VALID,22.8952,VALID,29,VALID,0.544141,
2012-02-13, 00:47:05,VALID,1009.46,VALID,0,VALID,104,VALID,0,VALID,22.8952,VALID,30,VALID,0.155859,
2012-02-13, 00:48:05,VALID,1009.44,VALID,0,VALID,104,VALID,0,VALID,22.9147,VALID,28,VALID,0.283594,
2012-02-13, 00:49:05,VALID,1009.44,VALID,0,VALID,104,VALID,0,VALID,22.9147,VALID,30,VALID,0.420312,
2012-02-13, 00:50:05,VALID,1009.4,VALID,0,VALID,104,VALID,0,VALID,22.8952,VALID,30,VALID,0.258594,
2012-02-13, 00:51:05,VALID,1009.39,VALID,0,VALID,104,VALID,0,VALID,22.8952,VALID,30,VALID,0.175391,
2012-02-13, 00:52:05,VALID,1009.39,VALID,0,VALID,104,VALID,0,VALID,22.8757,VALID,30,VALID,0.214453,
2012-02-13, 00:53:05,VALID,1009.35,VALID,0,VALID,104,VALID,0,VALID,22.8757,VALID,64,VALID,0.811719,
2012-02-13, 00:54:05,VALID,1009.3,VALID,0,VALID,104,VALID,0,VALID,22.8775,VALID,45,VALID,0.816406,
2012-02-13, 00:55:05,VALID,1009.27,VALID,0,VALID,104,VALID,0,VALID,22.8562,VALID,45,VALID,0.650391,
2012-02-13, 00:56:05,VALID,1009.25,VALID,0,VALID,104,VALID,0,VALID,22.8969,VALID,45,VALID,0.522266,
2012-02-13, 00:57:05,VALID,1009.23,VALID,0,VALID,104,VALID,0,VALID,22.8757,VALID,57,VALID,0.646094,
2012-02-13, 00:58:05,VALID,1009.22,VALID,0,VALID,104,VALID,0,VALID,22.8952,VALID,89,VALID,0.98125,
2012-02-13, 00:59:05,VALID,1009.23,VALID,0,VALID,104,VALID,0,VALID,22.8757,VALID,93,VALID,0.773438,
2012-02-13, 01:00:05,VALID,1009.23,VALID,0,VALID,104,VALID,0,VALID,22.8952,VALID,84,VALID,0.742188,
2012-02-13, 01:01:05,VALID,1009.24,VALID,0,VALID,104,VALID,0,VALID,22.8757,VALID,82,VALID,0.847656,
2012-02-13, 01:02:05,VALID,1009.22,VALID,0,VALID,104,VALID,0,VALID,22.8757,VALID,66,VALID,0.563672,
2012-02-13, 01:03:05,VALID,1009.26,VALID,0,VALID,104,VALID,0,VALID,22.8757,VALID,66,VALID,0.532812,
2012-02-13, 01:04:05,VALID,1009.24,VALID,0,VALID,104,VALID,0,VALID,22.8757,VALID,66,VALID,0.2375,
2012-02-13, 01:05:05,VALID,1009.27,VALID,0,VALID,104,VALID,0,VALID,22.8969,VALID,66,VALID,0.290625,
2012-02-13, 01:06:05,VALID,1009.27,VALID,0,VALID,104,VALID,0,VALID,22.8757,VALID,28,VALID,0.569141,
2012-02-13, 01:07:05,VALID,1009.27,VALID,0,VALID,104,VALID,0,VALID,22.8562,VALID,47,VALID,0.794141,
2012-02-13, 01:08:05,VALID,1009.27,VALID,0,VALID,104,VALID,0,VALID,22.858,VALID,49,VALID,0.382422,
2012-02-13, 01:09:05,VALID,1009.23,VALID,0,VALID,104,VALID,0,VALID,22.8368,VALID,63,VALID,0.619531,
2012-02-13, 01:10:05,VALID,1009.25,VALID,0,VALID,104,VALID,0,VALID,22.8562,VALID,77,VALID,0.813672,
2012-02-13, 01:11:05,VALID,1009.23,VALID,0,VALID,104,VALID,0,VALID,22.8757,VALID,77,VALID,1.14063,
2012-02-13, 01:12:05,VALID,1009.25,VALID,0,VALID,104,VALID,0,VALID,22.9164,VALID,94,VALID,0.858594,
2012-02-13, 01:13:05,VALID,1009.22,VALID,0,VALID,104,VALID,0,VALID,22.8757,VALID,86,VALID,0.671094,
2012-02-13, 01:14:05,VALID,1009.19,VALID,0,VALID,104,VALID,0,VALID,22.8952,VALID,77,VALID,0.904688,
2012-02-13, 01:15:05,VALID,1009.22,VALID,0,VALID,104,VALID,0,VALID,22.9164,VALID,78,VALID,0.419531,
2012-02-13, 01:16:05,VALID,1009.22,VALID,0,VALID,104,VALID,0,VALID,22.8757,VALID,43,VALID,0.460547,
2012-02-13, 01:17:05,VALID,1009.21,VALID,0,VALID,104,VALID,0,VALID,22.8562,VALID,36,VALID,0.759766,
2012-02-13, 01:18:05,VALID,1009.24,VALID,0,VALID,104,VALID,0,VALID,22.8562,VALID,33,VALID,0.232812,
2012-02-13, 01:19:05,VALID,1009.22,VALID,0,VALID,104,VALID,0,VALID,22.8562,VALID,33,VALID,0.581641,
2012-02-13, 01:20:05,VALID,1009.24,VALID,0,VALID,104,VALID,0,VALID,22.8368,VALID,60,VALID,0.620313,
2012-02-13, 01:21:05,VALID,1009.23,VALID,0,VALID,104,VALID,0,VALID,22.8562,VALID,79,VALID,0.916406,
2012-02-13, 01:22:05,VALID,1009.23,VALID,0,VALID,104,VALID,0,VALID,22.8562,VALID,62,VALID,0.548437,
2012-02-13, 01:23:05,VALID,1009.2,VALID,0,VALID,104,VALID,0,VALID,22.8757,VALID,75,VALID,0.873828,
2012-02-13, 01:24:05,VALID,1009.18,VALID,0,VALID,104,VALID,0,VALID,22.8952,VALID,74,VALID,0.727344,
2012-02-13, 01:25:05,VALID,1009.19,VALID,0,VALID,104,VALID,0,VALID,22.8969,VALID,74,VALID,0.430859,
2012-02-13, 01:26:05,VALID,1009.18,VALID,0,VALID,104,VALID,0,VALID,22.8757,VALID,58,VALID,0.516797,
2012-02-13, 01:27:05,VALID,1009.16,VALID,0,VALID,104,VALID,0,VALID,22.8562,VALID,40,VALID,0.000390625,
2012-02-13, 01:28:05,VALID,1009.15,VALID,0,VALID,104,VALID,0,VALID,22.8368,VALID,40,VALID,0.0078125,
2012-02-13, 01:29:05,VALID,1009.14,VALID,0,VALID,104,VALID,0,VALID,22.8562,VALID,40,VALID,0,
2012-02-13, 01:30:05,VALID,1009.13,VALID,0,VALID,104,VALID,0,VALID,22.8368,VALID,40,VALID,0,
2012-02-13, 01:31:05,VALID,1009.13,VALID,0,VALID,104,VALID,0,VALID,22.8173,VALID,40,VALID,0,
2012-02-13, 01:32:05,VALID,1009.15,VALID,0,VALID,104,VALID,0,VALID,22.8368,VALID,40,VALID,0,
2012-02-13, 01:33:05,VALID,1009.17,VALID,0,VALID,104,VALID,0,VALID,22.8368,VALID,40,VALID,0.379687,
2012-02-13, 01:34:05,VALID,1009.19,VALID,0,VALID,104,VALID,0,VALID,22.8368,VALID,40,VALID,0.339453,
2012-02-13, 01:35:05,VALID,1009.2,VALID,0,VALID,104,VALID,0,VALID,22.8385,VALID,40,VALID,0.336328,
2012-02-13, 01:36:05,VALID,1009.2,VALID,0,VALID,104,VALID,0,VALID,22.8173,VALID,40,VALID,0.335156,
2012-02-13, 01:37:05,VALID,1009.21,VALID,0,VALID,104,VALID,0,VALID,22.8173,VALID,27,VALID,0.646875,
2012-02-13, 01:38:05,VALID,1009.24,VALID,0,VALID,104,VALID,0,VALID,22.819,VALID,27,VALID,0.533984,
2012-02-13, 01:39:05,VALID,1009.2,VALID,0,VALID,104,VALID,0,VALID,22.8173,VALID,27,VALID,0.2125,
2012-02-13, 01:40:05,VALID,1009.2,VALID,0,VALID,104,VALID,0,VALID,22.8173,VALID,27,VALID,0.0839844,
2012-02-13, 01:41:05,VALID,1009.21,VALID,0,VALID,104,VALID,0,VALID,22.819,VALID,27,VALID,0.000390625,
2012-02-13, 01:42:05,VALID,1009.22,VALID,0,VALID,104,VALID,0,VALID,22.8173,VALID,27,VALID,0,
2012-02-13, 01:43:05,VALID,1009.23,VALID,0,VALID,104,VALID,0,VALID,22.8173,VALID,27,VALID,0.0453125,
2012-02-13, 01:44:05,VALID,1009.2,VALID,0,VALID,104,VALID,0,VALID,22.8173,VALID,27,VALID,0.245312,
2012-02-13, 01:45:05,VALID,1009.22,VALID,0,VALID,104,VALID,0,VALID,22.8385,VALID,123,VALID,0.7125,
2012-02-13, 01:46:05,VALID,1009.21,VALID,0,VALID,104,VALID,0,VALID,22.8368,VALID,123,VALID,0.303125,
2012-02-13, 01:47:05,VALID,1009.2,VALID,0,VALID,104,VALID,0,VALID,22.835,VALID,123,VALID,0.355469,
2012-02-13, 01:48:05,VALID,1009.17,VALID,0,VALID,104,VALID,0.112112,VALID,22.8562,VALID,118,VALID,0.448438,
2012-02-13, 01:49:05,VALID,1009.15,VALID,0,VALID,104,VALID,0.112112,VALID,22.8545,VALID,95,VALID,0.484375,
2012-02-13, 01:50:05,VALID,1009.13,VALID,0,VALID,104,VALID,0.112112,VALID,22.8757,VALID,94,VALID,0.407031,
2012-02-13, 01:51:05,VALID,1009.13,VALID,0,VALID,104,VALID,0.112112,VALID,22.8545,VALID,94,VALID,0.204297,
2012-02-13, 01:52:05,VALID,1009.12,VALID,0,VALID,104,VALID,0.112112,VALID,22.8545,VALID,94,VALID,0.000390625,
2012-02-13, 01:53:05,VALID,1009.15,VALID,0,VALID,104,VALID,0,VALID,22.8562,VALID,83,VALID,0.730859,
2012-02-13, 01:54:05,VALID,1009.14,VALID,0,VALID,104,VALID,0,VALID,22.8562,VALID,57,VALID,0.607422,
2012-02-13, 01:55:05,VALID,1009.08,VALID,0,VALID,104,VALID,0,VALID,22.8562,VALID,62,VALID,0.880859,
2012-02-13, 01:56:05,VALID,1009.07,VALID,0,VALID,104,VALID,0,VALID,22.8562,VALID,68,VALID,0.695313,
2012-02-13, 01:57:05,VALID,1009.07,VALID,0,VALID,104,VALID,0,VALID,22.8562,VALID,80,VALID,0.497656,
2012-02-13, 01:58:05,VALID,1009.04,VALID,0,VALID,104,VALID,0,VALID,22.858,VALID,59,VALID,0.260156,
2012-02-13, 01:59:05,VALID,1009.03,VALID,0,VALID,104,VALID,0,VALID,22.8562,VALID,63,VALID,0.567969,
2012-02-13, 02:00:05,VALID,1009.02,VALID,0,VALID,104,VALID,0,VALID,22.8775,VALID,77,VALID,0.463281,
2012-02-13, 02:01:05,VALID,1009,VALID,0,VALID,104,VALID,0,VALID,22.8969,VALID,78,VALID,0.514453,
2012-02-13, 02:02:05,VALID,1009,VALID,0,VALID,104,VALID,0,VALID,22.858,VALID,77,VALID,0.914844,
2012-02-13, 02:03:05,VALID,1009,VALID,0,VALID,104,VALID,0,VALID,22.8775,VALID,78,VALID,0.819922,
2012-02-13, 02:04:05,VALID,1008.99,VALID,0,VALID,104,VALID,0,VALID,22.8562,VALID,79,VALID,0.786719,
2012-02-13, 02:05:05,VALID,1008.99,VALID,0,VALID,104,VALID,0,VALID,22.8562,VALID,62,VALID,0.845703,
2012-02-13, 02:06:05,VALID,1008.99,VALID,0,VALID,104,VALID,0,VALID,22.8757,VALID,72,VALID,0.635156,
2012-02-13, 02:07:05,VALID,1009,VALID,0,VALID,104,VALID,0,VALID,22.8952,VALID,95,VALID,0.533594,
2012-02-13, 02:08:05,VALID,1008.98,VALID,0,VALID,104,VALID,0,VALID,22.9147,VALID,105,VALID,0.283203,
2012-02-13, 02:09:05,VALID,1008.97,VALID,0,VALID,104,VALID,0,VALID,22.9147,VALID,86,VALID,0.357422,
2012-02-13, 02:10:05,VALID,1008.92,VALID,0,VALID,104,VALID,0,VALID,22.8757,VALID,86,VALID,0.8125,
2012-02-13, 02:11:05,VALID,1008.93,VALID,0,VALID,104,VALID,0,VALID,22.8775,VALID,106,VALID,0.970703,
2012-02-13, 02:12:05,VALID,1008.9,VALID,0,VALID,104,VALID,0,VALID,22.8173,VALID,115,VALID,0.78125,
2012-02-13, 02:13:05,VALID,1008.89,VALID,0,VALID,104,VALID,0,VALID,22.8368,VALID,128,VALID,1.03242,
2012-02-13, 02:14:05,VALID,1008.87,VALID,0,VALID,104,VALID,0,VALID,22.8173,VALID,90,VALID,0.961719,
2012-02-13, 02:15:05,VALID,1008.87,VALID,0,VALID,104,VALID,0,VALID,22.8368,VALID,94,VALID,0.865234,
2012-02-13, 02:16:05,VALID,1008.84,VALID,0,VALID,104,VALID,0,VALID,22.8562,VALID,119,VALID,0.783203,
2012-02-13, 02:17:05,VALID,1008.82,VALID,0,VALID,104,VALID,0,VALID,22.8368,VALID,86,VALID,1.19648,
2012-02-13, 02:18:05,VALID,1008.8,VALID,0,VALID,104,VALID,0,VALID,22.8173,VALID,111,VALID,0.732031,
2012-02-13, 02:19:05,VALID,1008.75,VALID,0,VALID,104,VALID,0,VALID,22.8368,VALID,110,VALID,0.412109,
2012-02-13, 02:20:05,VALID,1008.75,VALID,0,VALID,104,VALID,0,VALID,22.7978,VALID,100,VALID,0.565625,
2012-02-13, 02:21:05,VALID,1008.7,VALID,0,VALID,104,VALID,0,VALID,22.8173,VALID,100,VALID,0.301172,
2012-02-13, 02:22:05,VALID,1008.7,VALID,0,VALID,104,VALID,0,VALID,22.8368,VALID,114,VALID,0.656641,
2012-02-13, 02:23:05,VALID,1008.67,VALID,0,VALID,104,VALID,0,VALID,22.8173,VALID,139,VALID,0.495313,
2012-02-13, 02:24:05,VALID,1008.68,VALID,0,VALID,104,VALID,0,VALID,22.8173,VALID,100,VALID,0.492969,
2012-02-13, 02:25:05,VALID,1008.67,VALID,0,VALID,104,VALID,0,VALID,22.7978,VALID,108,VALID,0.803906,
2012-02-13, 02:26:04,VALID,1008.66,VALID,0,VALID,104,VALID,0,VALID,22.7978,VALID,109,VALID,0.378516,
2012-02-13, 02:27:04,VALID,1008.63,VALID,0,VALID,104,VALID,0,VALID,22.819,VALID,89,VALID,0.75625,
2012-02-13, 02:28:04,VALID,1008.63,VALID,0,VALID,104,VALID,0,VALID,22.7978,VALID,86,VALID,0.404687,
2012-02-13, 02:29:04,VALID,1008.66,VALID,0,VALID,104,VALID,0,VALID,22.7783,VALID,92,VALID,0.936719,
2012-02-13, 02:30:04,VALID,1008.67,VALID,0,VALID,104,VALID,0,VALID,22.78,VALID,95,VALID,0.933594,
2012-02-13, 02:31:04,VALID,1008.68,VALID,0,VALID,104,VALID,0,VALID,22.7606,VALID,104,VALID,0.598047,
2012-02-13, 02:32:04,VALID,1008.71,VALID,0,VALID,104,VALID,0,VALID,22.7783,VALID,119,VALID,0.564844,
2012-02-13, 02:33:04,VALID,1008.69,VALID,0,VALID,104,VALID,0,VALID,22.7588,VALID,104,VALID,1.00859,
2012-02-13, 02:34:04,VALID,1008.71,VALID,0,VALID,104,VALID,0,VALID,22.7588,VALID,104,VALID,0.482812,
2012-02-13, 02:35:04,VALID,1008.67,VALID,0,VALID,104,VALID,0,VALID,22.7394,VALID,93,VALID,0.851563,
2012-02-13, 02:36:04,VALID,1008.65,VALID,0,VALID,104,VALID,0,VALID,22.7394,VALID,70,VALID,0.935547,
2012-02-13, 02:37:04,VALID,1008.65,VALID,0,VALID,104,VALID,0,VALID,22.7394,VALID,96,VALID,0.867578,
2012-02-13, 02:38:04,VALID,1008.65,VALID,0,VALID,104,VALID,0,VALID,22.7199,VALID,109,VALID,0.861719,
2012-02-13, 02:39:04,VALID,1008.65,VALID,0,VALID,104,VALID,0,VALID,22.7199,VALID,98,VALID,0.432031,
2012-02-13, 02:40:04,VALID,1008.59,VALID,0,VALID,104,VALID,0,VALID,22.7199,VALID,141,VALID,0.797266,
2012-02-13, 02:41:04,VALID,1008.59,VALID,0,VALID,104,VALID,0,VALID,22.7004,VALID,138,VALID,0.385156,
2012-02-13, 02:42:04,VALID,1008.59,VALID,0,VALID,104,VALID,0,VALID,22.7199,VALID,138,VALID,0.235938,
2012-02-13, 02:43:04,VALID,1008.59,VALID,0,VALID,104,VALID,0,VALID,22.7216,VALID,138,VALID,0.065625,
2012-02-13, 02:44:04,VALID,1008.59,VALID,0,VALID,104,VALID,0,VALID,22.7004,VALID,138,VALID,0.223828,
2012-02-13, 02:45:04,VALID,1008.59,VALID,0,VALID,104,VALID,0,VALID,22.6809,VALID,138,VALID,0.504687,
2012-02-13, 02:46:04,VALID,1008.57,VALID,0,VALID,104,VALID,0,VALID,22.7004,VALID,138,VALID,0.471875,
2012-02-13, 02:47:04,VALID,1008.55,VALID,0,VALID,104,VALID,0,VALID,22.7004,VALID,138,VALID,0.109375,
2012-02-13, 02:48:04,VALID,1008.57,VALID,0,VALID,104,VALID,0,VALID,22.7004,VALID,135,VALID,0.422656,
2012-02-13, 02:49:04,VALID,1008.55,VALID,0,VALID,104,VALID,0,VALID,22.7216,VALID,99,VALID,0.549219,
2012-02-13, 02:50:04,VALID,1008.6,VALID,0,VALID,104,VALID,0,VALID,22.7199,VALID,98,VALID,0.290234,
2012-02-13, 02:51:04,VALID,1008.57,VALID,0,VALID,104,VALID,0,VALID,22.7199,VALID,98,VALID,0.222656,
2012-02-13, 02:52:04,VALID,1008.56,VALID,0,VALID,104,VALID,0,VALID,22.7394,VALID,98,VALID,0.354297,
2012-02-13, 02:53:04,VALID,1008.56,VALID,0,VALID,104,VALID,0,VALID,22.7411,VALID,98,VALID,0.145313,
2012-02-13, 02:54:04,VALID,1008.51,VALID,0,VALID,104,VALID,0,VALID,22.7411,VALID,98,VALID,0.558594,
2012-02-13, 02:55:04,VALID,1008.51,VALID,0,VALID,104,VALID,0,VALID,22.7199,VALID,98,VALID,0.627344,
2012-02-13, 02:56:04,VALID,1008.5,VALID,0,VALID,104,VALID,0,VALID,22.7199,VALID,96,VALID,0.834766,
2012-02-13, 02:57:04,VALID,1008.51,VALID,0,VALID,104,VALID,0,VALID,22.7216,VALID,91,VALID,0.764844,
2012-02-13, 02:58:04,VALID,1008.48,VALID,0,VALID,104,VALID,0,VALID,22.7411,VALID,84,VALID,0.464453,
2012-02-13, 02:59:04,VALID,1008.47,VALID,0,VALID,104,VALID,0,VALID,22.7411,VALID,84,VALID,0.714453,
2012-02-13, 03:00:04,VALID,1008.48,VALID,0,VALID,104,VALID,0,VALID,22.7199,VALID,86,VALID,0.488281,
2012-02-13, 03:01:04,VALID,1008.48,VALID,0,VALID,104,VALID,0,VALID,22.7004,VALID,71,VALID,0.560547,
2012-02-13, 03:02:04,VALID,1008.48,VALID,0,VALID,104,VALID,0,VALID,22.7216,VALID,58,VALID,0.717969,
2012-02-13, 03:03:04,VALID,1008.51,VALID,0,VALID,104,VALID,0,VALID,22.7004,VALID,58,VALID,0.635156,
2012-02-13, 03:04:04,VALID,1008.53,VALID,0,VALID,104,VALID,0,VALID,22.6809,VALID,59,VALID,0.395703,
2012-02-13, 03:05:04,VALID,1008.57,VALID,0,VALID,104,VALID,0,VALID,22.7216,VALID,59,VALID,0.391797,
2012-02-13, 03:06:04,VALID,1008.59,VALID,0,VALID,104,VALID,0,VALID,22.7216,VALID,59,VALID,0.0914062,
2012-02-13, 03:07:04,VALID,1008.58,VALID,0,VALID,104,VALID,0,VALID,22.7004,VALID,59,VALID,0.302344,
2012-02-13, 03:08:04,VALID,1008.6,VALID,0,VALID,104,VALID,0,VALID,22.7021,VALID,59,VALID,0.0773437,
2012-02-13, 03:09:04,VALID,1008.63,VALID,0,VALID,104,VALID,0,VALID,22.7021,VALID,59,VALID,0.0183594,
2012-02-13, 03:10:04,VALID,1008.66,VALID,0,VALID,104,VALID,0,VALID,22.6809,VALID,59,VALID,0.0382813,
2012-02-13, 03:11:04,VALID,1008.67,VALID,0,VALID,104,VALID,0,VALID,22.6809,VALID,59,VALID,0,
2012-02-13, 03:12:04,VALID,1008.67,VALID,0,VALID,104,VALID,0,VALID,22.6809,VALID,59,VALID,0.184375,
2012-02-13, 03:13:04,VALID,1008.67,VALID,0,VALID,104,VALID,0,VALID,22.6614,VALID,59,VALID,0.345313,
2012-02-13, 03:14:04,VALID,1008.67,VALID,0,VALID,104,VALID,0,VALID,22.6614,VALID,59,VALID,0.388672,
2012-02-13, 03:15:04,VALID,1008.68,VALID,0,VALID,104,VALID,0,VALID,22.6632,VALID,59,VALID,0.187109,
2012-02-13, 03:16:04,VALID,1008.69,VALID,0,VALID,104,VALID,0,VALID,22.603,VALID,59,VALID,0.260938,
2012-02-13, 03:17:04,VALID,1008.68,VALID,0,VALID,104,VALID,0,VALID,22.6437,VALID,59,VALID,0.227344,
2012-02-13, 03:18:04,VALID,1008.69,VALID,0,VALID,104,VALID,0,VALID,22.603,VALID,59,VALID,0.281641,
2012-02-13, 03:19:04,VALID,1008.71,VALID,0,VALID,104,VALID,0,VALID,22.603,VALID,59,VALID,0.157422,
2012-02-13, 03:20:04,VALID,1008.69,VALID,0,VALID,104,VALID,0,VALID,22.6047,VALID,59,VALID,0,
2012-02-13, 03:21:04,VALID,1008.69,VALID,0,VALID,104,VALID,0,VALID,22.564,VALID,59,VALID,0.236328,
2012-02-13, 03:22:04,VALID,1008.7,VALID,0,VALID,104,VALID,0,VALID,22.5852,VALID,59,VALID,0,
2012-02-13, 03:23:04,VALID,1008.67,VALID,0,VALID,104,VALID,0,VALID,22.5658,VALID,59,VALID,0,
2012-02-13, 03:24:04,VALID,1008.65,VALID,0,VALID,104,VALID,0,VALID,22.5446,VALID,59,VALID,0,
2012-02-13, 03:25:04,VALID,1008.66,VALID,0,VALID,104,VALID,0,VALID,22.5658,VALID,59,VALID,0.165625,
2012-02-13, 03:26:04,VALID,1008.64,VALID,0,VALID,104,VALID,0,VALID,22.564,VALID,59,VALID,0.151172,
2012-02-13, 03:27:04,VALID,1008.61,VALID,0,VALID,104,VALID,0,VALID,22.5658,VALID,59,VALID,0.269922,
2012-02-13, 03:28:04,VALID,1008.59,VALID,0,VALID,104,VALID,0,VALID,22.5446,VALID,59,VALID,0.0460938,
2012-02-13, 03:29:04,VALID,1008.61,VALID,0,VALID,104,VALID,0,VALID,22.5251,VALID,59,VALID,0.160156,
2012-02-13, 03:30:04,VALID,1008.63,VALID,0,VALID,104,VALID,0,VALID,22.5658,VALID,59,VALID,0,
2012-02-13, 03:31:04,VALID,1008.63,VALID,0,VALID,104,VALID,0,VALID,22.5251,VALID,59,VALID,0,
2012-02-13, 03:32:04,VALID,1008.63,VALID,0,VALID,104,VALID,0,VALID,22.5251,VALID,59,VALID,0,
2012-02-13, 03:33:04,VALID,1008.65,VALID,0,VALID,104,VALID,0,VALID,22.5251,VALID,59,VALID,0,
2012-02-13, 03:34:04,VALID,1008.65,VALID,0,VALID,104,VALID,0,VALID,22.5658,VALID,59,VALID,0,
2012-02-13, 03:35:04,VALID,1008.62,VALID,0,VALID,104,VALID,0,VALID,22.5835,VALID,59,VALID,0.04375,
2012-02-13, 03:36:04,VALID,1008.63,VALID,0,VALID,104,VALID,0,VALID,22.5835,VALID,59,VALID,0.121484,
2012-02-13, 03:37:04,VALID,1008.61,VALID,0,VALID,104,VALID,0,VALID,22.6242,VALID,59,VALID,0.272656,
2012-02-13, 03:38:04,VALID,1008.66,VALID,0,VALID,104,VALID,0,VALID,22.6225,VALID,59,VALID,0.285156,
2012-02-13, 03:39:04,VALID,1008.67,VALID,0,VALID,104,VALID,0.112112,VALID,22.6013,VALID,59,VALID,0.455859,
2012-02-13, 03:40:04,VALID,1008.69,VALID,0,VALID,104,VALID,0,VALID,22.5818,VALID,59,VALID,0.373828,
2012-02-13, 03:41:04,VALID,1008.7,VALID,0,VALID,104,VALID,0,VALID,22.603,VALID,59,VALID,0.257422,
2012-02-13, 03:42:04,VALID,1008.7,VALID,0,VALID,104,VALID,0,VALID,22.5835,VALID,59,VALID,0.226563,
2012-02-13, 03:43:04,VALID,1008.71,VALID,0,VALID,104,VALID,0,VALID,22.5623,VALID,59,VALID,0.269531,
2012-02-13, 03:44:04,VALID,1008.72,VALID,0,VALID,104,VALID,0,VALID,22.5835,VALID,59,VALID,0.242578,
2012-02-13, 03:45:04,VALID,1008.74,VALID,0,VALID,104,VALID,0,VALID,22.603,VALID,59,VALID,0.484375,
2012-02-13, 03:46:04,VALID,1008.77,VALID,0,VALID,104,VALID,0,VALID,22.603,VALID,59,VALID,0.636719,
2012-02-13, 03:47:04,VALID,1008.76,VALID,0,VALID,104,VALID,0,VALID,22.5818,VALID,62,VALID,0.583594,
2012-02-13, 03:48:04,VALID,1008.78,VALID,0,VALID,104,VALID,0,VALID,22.603,VALID,120,VALID,0.636719,
2012-02-13, 03:49:04,VALID,1008.77,VALID,0,VALID,104,VALID,0,VALID,22.603,VALID,143,VALID,0.500391,
2012-02-13, 03:50:04,VALID,1008.76,VALID,0,VALID,104,VALID,0,VALID,22.5818,VALID,143,VALID,0.408984,
2012-02-13, 03:51:04,VALID,1008.76,VALID,0,VALID,104,VALID,0.112112,VALID,22.6013,VALID,143,VALID,0.325781,
2012-02-13, 03:52:04,VALID,1008.75,VALID,0,VALID,104,VALID,0,VALID,22.603,VALID,143,VALID,0.400781,
2012-02-13, 03:53:04,VALID,1008.75,VALID,0,VALID,104,VALID,0,VALID,22.6013,VALID,143,VALID,0.268359,
2012-02-13, 03:54:04,VALID,1008.72,VALID,0,VALID,104,VALID,0,VALID,22.6225,VALID,143,VALID,0.226563,
2012-02-13, 03:55:04,VALID,1008.71,VALID,0,VALID,104,VALID,0,VALID,22.6225,VALID,143,VALID,0.164844,